Weather History for Toronto, ON

Change the Weather History Date:

Saturday, February 23, 2013

  Actual Average Record
Temperature  
Mean Temperature 34 °F -  
Max Temperature 36 °F 36 °F 41 °F (2012)
Min Temperature 32 °F 25 °F 12 °F (2007)
Degree Days  
Heating Degree Days 31    
Moisture  
Dew Point 31 °F    
Average Humidity 85    
Maximum Humidity 93    
Minimum Humidity 51    
Precipitation  
Precipitation 0.00 in 0.08 in - ()
Sea Level Pressure  
Sea Level Pressure 29.91 in    
Wind  
Wind Speed 10 mph ()    
Max Wind Speed 20 mph    
Max Gust Speed 20 mph    
Visibility 8.9 miles    
Events Rain    
Averages and records for this station are not official NWS values.
T = Trace of Precipitation, MM = Missing Value Source: Averaged Metar Reports

Daily Weather History Graph

Daily Weather History Graph

Search for Another Location

Airport:

Trip Planner

Search our weather history database for the weather conditions in past years. The results will help you decide how hot, cold, wet, or windy it might be!

Date:

Astronomy

Feb. 23, 2013 Rise Set
Actual Time 7:03 AM EST 5:58 PM EST
Civil Twilight 6:34 AM EST 6:27 PM EST
Nautical Twilight 6:01 AM EST 7:01 PM EST
Astronomical Twilight 5:28 AM EST 7:34 PM EST
Moon 4:05 PM EST (2/23) 5:27 AM EST (2/23)
Length of Visible Light 11h 53m
Length of Day
10h 55m
Waxing Gibbous, 95% of the Moon is Illuminated
Feb 23
Waxing Gibbous
Feb 25
Full
Mar 4
Last Quarter
Mar 11
New
Mar 19
First Quarter

Hourly Weather History & Observations

Time (EST) Temp. Windchill Dew Point Humidity Pressure Visibility Wind Dir Wind Speed Gust Speed Precip Events Conditions
12:00 AM 35.6 °F 31.7 °F 33.8 °F 93% 29.97 in 9.0 mi SSE 4.6 mph - N/A   Overcast
12:08 AM 35.6 °F 28.6 °F 33.8 °F 93% 29.96 in 5.0 mi South 9.2 mph - N/A Rain Light Rain
12:19 AM 35.6 °F 30.7 °F 33.8 °F 93% 29.96 in 6.0 mi SSE 5.8 mph - N/A Rain Light Rain
12:25 AM 35.6 °F 30.7 °F 33.8 °F 93% 29.96 in 7.0 mi SSE 5.8 mph - N/A   Overcast
1:00 AM 36 °F - 34 °F 87% 29.96 in 10 mi South 9.2 mph - -   Clear
1:00 AM 35.6 °F 28.6 °F 33.8 °F 93% 29.95 in 9.0 mi South 9.2 mph - N/A   Overcast
2:00 AM 37.4 °F 29.3 °F 33.8 °F 87% 29.94 in 9.0 mi South 12.7 mph 19.6 mph N/A   Overcast
2:50 AM 37.4 °F 28.5 °F 33.8 °F 87% 29.93 in 9.0 mi South 15.0 mph - N/A   Overcast
3:00 AM 37.4 °F 28.9 °F 33.8 °F 87% 29.93 in 9.0 mi South 13.8 mph - N/A   Overcast
4:00 AM 37.4 °F 28.5 °F 33.8 °F 87% 29.92 in 9.0 mi South 15.0 mph - N/A   Overcast
5:00 AM 37.4 °F 28.9 °F 33.8 °F 87% 29.92 in 9.0 mi South 13.8 mph - N/A   Overcast
5:28 AM 35.6 °F 26.6 °F 33.8 °F 93% 29.92 in 9.0 mi South 13.8 mph - N/A   Overcast
5:35 AM 35.6 °F 27.1 °F 33.8 °F 93% 29.92 in 9.0 mi South 12.7 mph - N/A   Overcast
5:37 AM 35.6 °F 27.1 °F 33.8 °F 93% 29.92 in 9.0 mi South 12.7 mph - N/A   Overcast
6:00 AM 35.6 °F 27.1 °F 33.8 °F 93% 29.92 in 9.0 mi South 12.7 mph - N/A   Overcast
6:18 AM 35.6 °F 26.6 °F 33.8 °F 93% 29.92 in 9.0 mi South 13.8 mph - N/A   Overcast
7:00 AM 36 °F - 33 °F 86% 29.93 in 10 mi SSW 12.7 mph - -   Overcast
7:00 AM 35.6 °F 26.6 °F 33.8 °F 93% 29.93 in 9.0 mi SSW 13.8 mph - N/A   Overcast
8:00 AM 35.6 °F 27.1 °F 33.8 °F 93% 29.93 in 9.0 mi South 12.7 mph - N/A   Overcast
9:00 AM 35.6 °F 28.0 °F 33.8 °F 93% 29.92 in 9.0 mi South 10.4 mph - N/A   Overcast
10:00 AM 35.6 °F 27.5 °F 33.8 °F 93% 29.91 in 9.0 mi South 11.5 mph - N/A   Overcast
10:13 AM 35.6 °F 27.5 °F 33.8 °F 93% 29.91 in 9.0 mi South 11.5 mph - N/A   Overcast
10:27 AM 35.6 °F 27.5 °F 33.8 °F 93% 29.90 in 9.0 mi South 11.5 mph - N/A   Overcast
10:54 AM 37.4 °F 30.3 °F 33.8 °F 87% 29.90 in 9.0 mi South 10.4 mph - N/A   Overcast
11:00 AM 37.4 °F 29.3 °F 33.8 °F 87% 29.90 in 9.0 mi SSW 12.7 mph - N/A   Overcast
11:03 AM 37.4 °F 29.8 °F 33.8 °F 87% 29.90 in 9.0 mi SSW 11.5 mph - N/A Rain Light Rain
11:35 AM 35.6 °F 26.6 °F 33.8 °F 93% 29.90 in 9.0 mi SSW 13.8 mph - N/A Rain Light Rain
11:37 AM 35.6 °F 27.1 °F 33.8 °F 93% 29.89 in 9.0 mi SSW 12.7 mph - N/A Rain Light Rain
11:56 AM 35.6 °F 27.5 °F 33.8 °F 93% 29.89 in 9.0 mi SSW 11.5 mph - N/A   Overcast
12:00 PM 35.6 °F 27.5 °F 33.8 °F 93% 29.89 in 9.0 mi SSW 11.5 mph - N/A   Overcast
12:05 PM 35.6 °F 27.5 °F 33.8 °F 93% 29.89 in 9.0 mi SSW 11.5 mph - N/A   Overcast
12:08 PM 35.6 °F 27.5 °F 33.8 °F 93% 29.89 in 9.0 mi SSW 11.5 mph - N/A   Overcast
12:14 PM 35.6 °F 27.1 °F 33.8 °F 93% 29.89 in 9.0 mi SSW 12.7 mph - N/A   Overcast
1:00 PM 36 °F - 33 °F 86% 29.87 in 10 mi SSW 11.5 mph - -   Overcast
1:00 PM 37.4 °F 29.3 °F 33.8 °F 87% 29.87 in 9.0 mi SSW 12.7 mph - N/A   Overcast
2:00 PM 35.6 °F 26.2 °F 30.2 °F 81% 29.86 in 9.0 mi SW 15.0 mph - N/A   Overcast
3:00 PM 35.6 °F 24.8 °F 24.8 °F 65% 29.86 in 9.0 mi WSW 19.6 mph - N/A   Overcast
4:00 PM 35.6 °F 26.2 °F 24.8 °F 65% 29.87 in 9.0 mi WSW 15.0 mph - N/A   Overcast
5:00 PM 35.6 °F 28.6 °F 26.6 °F 70% 29.88 in 9.0 mi WSW 9.2 mph - N/A   Overcast
6:00 PM 35.6 °F 30.7 °F 23.0 °F 60% 29.88 in 9.0 mi West 5.8 mph - N/A   Overcast
7:00 PM 35 °F - 24 °F 51% 29.90 in 10 mi West 10.4 mph - -   Overcast
7:00 PM 33.8 °F 25.8 °F 23.0 °F 65% 29.90 in 9.0 mi West 10.4 mph - N/A   Overcast
8:00 PM 33.8 °F 27.7 °F 24.8 °F 70% 29.91 in 9.0 mi West 6.9 mph - N/A   Scattered Clouds
9:00 PM 32.0 °F 24.8 °F 26.6 °F 80% 29.91 in 9.0 mi WSW 8.1 mph - N/A   Mostly Cloudy
9:41 PM 32.0 °F 24.2 °F 26.6 °F 80% 29.90 in 9.0 mi WSW 9.2 mph - N/A Rain Light Rain
9:47 PM 32.0 °F 24.8 °F 26.6 °F 80% 29.90 in 9.0 mi WSW 8.1 mph - N/A Rain Light Rain
9:50 PM 32.0 °F 24.8 °F 26.6 °F 80% 29.90 in 9.0 mi WSW 8.1 mph - N/A   Overcast
9:57 PM 32.0 °F 24.2 °F 26.6 °F 80% 29.90 in 9.0 mi SW 9.2 mph - N/A   Overcast
10:00 PM 32.0 °F 24.2 °F 26.6 °F 80% 29.90 in 9.0 mi SW 9.2 mph - N/A   Overcast
11:00 PM 32.0 °F 24.2 °F 24.8 °F 75% 29.88 in 9.0 mi WSW 9.2 mph - N/A   Mostly Cloudy